#timestamp,LO_Frequency,Hit 
1501830015.1,286046979.1,N
1501830016.0,286046979.1,N
1501830035.8,286046981.9,N
1501830055.7,286046979.8,N
1501830075.5,286046979.5,N
1501830095.3,286046979.4,N
1501830115.2,286046981.8,N
1501830135.9,286046979.2,N
1501830155.7,286046980.8,N
1501830175.5,286046982.0,N
1501830195.4,286046981.4,N
1501830215.2,286046981.7,N
1501830235.0,286046981.3,N
1501830235.9,286046981.3,N
1501830255.8,286046981.9,N
1501830275.6,286046979.2,N
1501830295.4,286046979.1,N
1501830315.3,286046980.1,N
1501830335.1,286046980.1,N
1501830336.0,286046980.1,N
1501830355.8,286046980.0,N
1501830375.7,286046977.4,N
1501830395.5,286046979.6,N
1501830415.3,286046980.1,N
1501830435.2,286046980.0,N
1501830455.9,286046977.8,N
1501830475.7,286046980.4,N
1501830495.5,286046979.8,N
1501830515.4,286046979.9,N
1501830535.2,286046979.0,N
1501830555.0,286046980.2,N
1501830555.9,286046980.2,N
1501830575.8,286046979.2,N
1501830595.6,286046977.9,N
1501830615.4,286046978.0,N
1501830635.3,286046978.1,N
1501830655.1,286046980.3,N
1501830656.0,286046980.3,N
1501830675.8,286046980.4,N
1501830695.7,286046977.8,N
1501830715.5,286046978.1,N
1501830735.3,286046977.3,N
1501830755.1,286046977.6,N
1501830775.9,286046977.4,N
1501830795.7,286046977.9,N
1501830815.5,286046977.8,N
1501830835.4,286046978.0,N
1501830855.2,286046976.4,N
1501830875.0,286046978.8,N
1501830875.9,286046978.8,N
1501830895.8,286046978.2,N
1501830915.6,286046976.4,N
1501830935.4,286046978.1,N
1501830955.3,286046978.2,N
1501830975.1,286046978.2,N
1501830976.0,286046978.2,N
1501830995.8,286046976.0,N
1501831015.7,286046978.7,N
1501831035.5,286046978.7,N
1501831055.3,286046975.7,N
1501831075.2,286046976.3,N
1501831095.9,286046978.1,N
1501831115.7,286046977.6,N
1501831135.5,286046976.3,N
1501831155.4,286046977.9,N
1501831175.2,286046975.7,N
1501831195.0,286046978.0,N
1501831195.9,286046978.0,N
1501831215.8,286046977.9,N
1501831235.6,286046978.7,N
1501831255.4,286046976.1,N
1501831275.3,286046976.5,N
1501831295.1,286046978.7,N
1501831296.0,286046978.7,N
1501831315.8,286046975.7,N
1501831335.7,286046978.8,N
1501831355.5,286046978.8,N
1501831375.3,286046978.4,N
1501831395.2,286046977.0,N
1501831415.9,286046978.4,N
1501831435.7,286046975.9,N
1501831455.5,286046976.6,N
1501831475.4,286046978.7,N
1501831495.2,286046976.0,N
1501831515.0,286046976.4,N
1501831515.9,286046976.4,N
1501831535.8,286046976.1,N
1501831555.6,286046975.9,N
1501831575.4,286046978.7,N
1501831595.3,286046976.0,N
1501831615.1,286046976.4,N
1501831616.0,286046976.4,N
1501831635.8,286046976.2,N
1501831655.7,286046976.5,N
1501831675.5,286046976.7,N
1501831695.3,286046975.9,N
1501831715.2,286046978.0,N
1501831735.9,286046978.7,N
1501831755.7,286046976.3,N
1501831775.5,286046978.3,N
1501831795.4,286046976.6,N
1501831815.2,286046976.9,N
1501831835.0,286046976.1,N
1501831835.9,286046976.1,N
1501831855.8,286046978.7,N
1501831875.6,286046976.6,N
1501831895.4,286046976.9,N
1501831915.3,286046975.8,N
1501831935.1,286046976.4,N
1501831955.8,286046977.2,N
1501831975.7,286046975.9,N
1501831995.5,286046975.8,N
1501832015.3,286046978.5,N
1501832035.2,286046976.5,N
1501832055.9,286046976.9,N
1501832075.7,286046978.4,N
1501832095.5,286046976.2,N
1501832115.4,286046978.7,N
1501832135.2,286046976.4,N
1501832155.0,286046976.0,N
1501832155.9,286046976.0,N
1501832175.8,286046976.4,N
1501832195.6,286046976.6,N
1501832215.4,286046976.6,N
1501832235.3,286046977.2,N
1501832255.1,286046976.8,N
1501832275.8,286046976.9,N
1501832295.7,286046975.9,N
1501832315.5,286046977.0,N
1501832335.3,286046977.0,N
1501832355.2,286046976.9,N
1501832375.9,286046974.6,N
1501832395.7,286046976.7,N
1501832415.5,286046976.8,N
1501832435.4,286046977.0,N
1501832455.2,286046977.0,N
1501832475.0,286046974.5,N
1501832475.9,286046974.5,N
1501832495.8,286046975.0,N
1501832515.6,286046975.3,N
1501832535.4,286046975.4,N
1501832555.3,286046974.9,N
1501832575.1,286046974.6,N
1501832576.0,286046974.6,N
1501832595.8,286046974.6,N
1501832615.7,286046977.2,N
1501832635.5,286046975.6,N
1501832655.3,286046974.8,N
1501832675.2,286046974.7,N
1501832695.9,286046975.0,N
1501832715.7,286046975.3,N
1501832735.5,286046975.1,N
1501832755.4,286046975.5,N
1501832775.2,286046972.6,N
1501832795.0,286046976.8,N
1501832795.9,286046976.8,N
1501832815.8,286046974.4,N
1501832835.6,286046978.8,N
1501832855.4,286046977.0,N
1501832875.3,286046976.2,N
1501832895.1,286046976.9,N
1501832896.0,286046976.9,N
1501832915.8,286046976.2,N
1501832935.7,286046976.5,N
1501832955.5,286046976.2,N
1501832975.3,286046978.5,N
1501832995.2,286046978.6,N
1501833015.9,286046975.9,N
1501833035.7,286046977.0,N
1501833055.6,286046976.2,N
1501833075.4,286046976.1,N
1501833095.2,286046976.7,N
1501833115.0,286046977.0,N
1501833116.0,286046977.0,N
1501833135.8,286046975.0,N
1501833155.6,286046976.8,N
1501833175.4,286046977.2,N
1501833195.3,286046974.4,N
1501833215.1,286046975.4,N
1501833235.8,286046975.1,N
1501833255.7,286046976.8,N
1501833275.5,286046977.2,N
1501833295.3,286046975.3,N
1501833315.2,286046974.8,N
1501833335.9,286046977.1,N
1501833355.7,286046975.2,N
1501833375.6,286046975.4,N
1501833395.4,286046974.5,N
1501833415.2,286046974.8,N
1501833435.0,286046973.0,N
1501833436.0,286046973.0,N
1501833455.8,286046975.3,N
1501833475.6,286046975.2,N
1501833495.4,286046974.7,N
1501833515.3,286046974.8,N
1501833535.1,286046972.8,N
1501833555.8,286046972.8,N
1501833575.7,286046973.0,N
1501833595.5,286046974.8,N
